This demonstration page uses our WeatherBlox Daily Observations layout. Learn more.

Left ArrowRight Arrow

34.74481, -87.66753

Hourly Observations for December 18, 2018

Temp ( °F °C ) Dew Point ( °F °C ) Humidity (%) Winds ( mph kmh ) Pressure ( in mb ) Visibility ( mi km ) Precip ( " mm )
12:53 am 00:53 Clear 37 2.8 35 1.7 93 93 Calm 30.20 1023 10 16 0.00 0.00
1:53 am 01:53 Clear 35 1.7 33 0.6 93 93 WSW 5 7 30.20 1023 10 16 0.00 0.00
2:53 am 02:53 Clear 36 2.2 34 1.1 93 93 Calm 30.20 1023 8 13 0.00 0.00
3:10 am 03:10 Clear with Mist and Fog 35 1.7 33 0.6 93 93 Calm 30.21 1023 2 2 0.00 0.00
3:20 am 03:20 Clear with Fog 35 1.7 34 1.1 96 96 Calm 30.21 1023 1 1 0.00 0.00
3:53 am 03:53 Clear with Mist and Fog 33 0.6 31 -0.6 92 92 WSW 3 6 30.19 1023 1 1 0.00 0.00
4:02 am 04:02 Mostly Cloudy with Mist and Fog 33 0.6 32 0 96 96 Calm 30.24 1024 1 2 0.00 0.00
4:12 am 04:12 Clear with Mist and Fog 34 1.1 32 0 92 92 Calm 30.24 1024 2 2 0.00 0.00
4:17 am 04:17 Clear with Mist and Fog 34 1.1 32 0 92 92 Calm 30.24 1024 3 5 0.00 0.00
4:40 am 04:40 Clear with Mist and Fog 33 0.6 32 0 96 96 Calm 30.21 1023 2 3 0.00 0.00
4:53 am 04:53 Clear with Mist and Fog 33 0.6 32 0 96 96 NNE 3 6 30.19 1022 1 1 0.00 0.00
5:15 am 05:15 Clear with Mist and Fog 32 0 30 -1.1 92 92 NNE 3 6 30.21 1023 3 4 0.00 0.00
5:22 am 05:22 Clear 33 0.6 31 -0.6 92 92 Calm 30.21 1023 8 13 0.00 0.00
5:53 am 05:53 Clear 34 1.1 32 0 92 92 Calm 30.18 1022 8 13 0.00 0.00
6:53 am 06:53 Sunny 32 0 30 -1.1 92 92 Calm 30.19 1022 9 14 0.00 0.00
7:53 am 07:53 Sunny 34 1.1 33 0.6 97 97 ESE 3 6 30.18 1022 9 14 0.00 0.00
8:53 am 08:53 Sunny 40 4.4 36 2.2 86 86 W 6 9 30.23 1024 10 16 0.00 0.00
9:53 am 09:53 Sunny 45 7.2 34 1.1 66 66 Calm 30.23 1024 10 16 0.00 0.00
10:53 am 10:53 Sunny 49 9.4 34 1.1 56 56 Calm 30.21 1023 10 16 0.00 0.00
11:53 am 11:53 Sunny 52 11.1 30 -1.1 43 43 ENE 5 7 30.17 1022 10 16 0.00 0.00
12:53 pm 12:53 Sunny 54 12.2 33 0.6 45 45 Calm 30.13 1020 10 16 0.00 0.00
1:53 pm 13:53 Sunny 58 14.4 26 -3.3 29 29 Calm 30.11 1020 10 16 0.00 0.00
2:53 pm 14:53 Sunny 60 15.6 25 -3.9 26 26 Calm 30.10 1019 10 16 0.00 0.00
3:53 pm 15:53 Sunny 57 13.9 25 -3.9 29 29 Calm 30.10 1019 10 16 0.00 0.00
4:53 pm 16:53 Clear 50 10 29 -1.7 44 44 Calm 30.10 1019 10 16 0.00 0.00
5:53 pm 17:53 Clear 48 8.9 31 -0.6 52 52 Calm 30.11 1020 10 16 0.00 0.00
6:53 pm 18:53 Clear 43 6.1 35 1.7 74 74 Calm 30.12 1020 10 16 0.00 0.00
7:53 pm 19:53 Clear 41 5 32 0 70 70 Calm 30.12 1020 10 16 0.00 0.00
8:53 pm 20:53 Clear 42 5.6 30 -1.1 62 62 Calm 30.11 1020 10 16 0.00 0.00
9:53 pm 21:53 Clear 39 3.9 34 1.1 82 82 Calm 30.09 1019 10 16 0.00 0.00
10:53 pm 22:53 Clear 39 3.9 31 -0.6 73 73 Calm 30.09 1019 10 16 0.00 0.00
11:53 pm 23:53 Clear 38 3.3 34 1.1 86 86 Calm 30.08 1019 10 16 0.00 0.00

Powered by AerisWeather